Change the Weather History Date:

Tuesday, March 25, 2014

  Actual Average Record
Temperature  
Mean Temperature 36 °F 52 °F  
Max Temperature 40 °F 62 °F 84 °F (1959)
Min Temperature 32 °F 41 °F 22 °F (1956)
Degree Days  
Heating Degree Days 29 14  
Month to date heating degree days 549 435  
Since 1 July heating degree days 3554 3436  
Cooling Degree Days 0 0  
Month to date cooling degree days 0 0  
Year to date cooling degree days 0 0  
Moisture  
Dew Point 30 °F    
Average Humidity 73    
Maximum Humidity 89    
Minimum Humidity 56    
Precipitation  
Precipitation 0.05 in 0.15 in 1.35 in (1984)
Month to date precipitation 3.01 3.12  
Year to date precipitation 8.13 9.55  
Snow  
Snow 0.00 in - - ()
Month to date snowfall 4.7  
Since 1 July snowfall 12.6  
Snow Depth -    
Sea Level Pressure  
Sea Level Pressure 29.92 in    
Wind  
Wind Speed 6 mph (NNE)    
Max Wind Speed 14 mph    
Max Gust Speed 18 mph    
Visibility 7 miles    
Events Rain , Snow    
T = Trace of Precipitation, MM = Missing Value Source: NWS Daily Summary

Daily Weather History Graph

Daily Weather History Graph

Search for Another Location

Airport or City:

Trip Planner

Search our weather history database for the weather conditions in past years. The results will help you decide how hot, cold, wet, or windy it might be!

Date:

Astronomy

Mar. 25, 2014 Rise Set
Actual Time 7:13 AM EDT 7:33 PM EDT
Civil Twilight 6:47 AM EDT 7:59 PM EDT
Nautical Twilight 6:17 AM EDT 8:29 PM EDT
Astronomical Twilight 5:46 AM EDT 9:00 PM EDT
Moon 3:25 AM EDT (3/25) 2:10 PM EDT (3/25)
Length of Visible Light 13h 11m
Length of Day
12h 19m
Waning Crescent, 32% of the Moon is Illuminated
Mar 25
Waning Crescent
Mar 30
New
Apr 7
First Quarter
Apr 15
Full
Apr 22
Last Quarter

Hourly Weather History & Observations

Time (EDT) Temp. Windchill Dew Point Humidity Pressure Visibility Wind Dir Wind Speed Gust Speed Precip Events Conditions
12:53 AM 36.0 °F - 21.0 °F 55% 30.05 in 10.0 mi Calm Calm - N/A   Clear
1:53 AM 33.1 °F 30.0 °F 21.9 °F 64% 30.05 in 10.0 mi SSW 3.5 mph - N/A   Clear
2:53 AM 36.0 °F - 21.9 °F 57% 30.02 in 10.0 mi Calm Calm - N/A   Mostly Cloudy
3:53 AM 35.1 °F 32.2 °F 24.1 °F 64% 29.98 in 10.0 mi SSE 3.5 mph - N/A   Mostly Cloudy
4:53 AM 35.1 °F - 26.1 °F 70% 29.98 in 10.0 mi Calm Calm - N/A   Overcast
5:53 AM 35.1 °F 31.0 °F 26.1 °F 70% 29.97 in 10.0 mi ENE 4.6 mph - N/A   Overcast
6:53 AM 35.1 °F 32.2 °F 26.1 °F 70% 29.98 in 10.0 mi NNE 3.5 mph - N/A   Overcast
7:53 AM 35.1 °F 30.1 °F 25.0 °F 67% 29.98 in 7.0 mi NNE 5.8 mph - 0.00 in Snow Light Snow
8:34 AM 34.0 °F 28.0 °F 27.0 °F 75% 29.99 in 2.5 mi North 6.9 mph - 0.00 in Snow Light Snow
8:49 AM 33.8 °F 29.6 °F 28.4 °F 81% 29.99 in 1.2 mi North 4.6 mph - 0.00 in Snow Light Snow
8:53 AM 33.1 °F 28.7 °F 28.9 °F 85% 29.99 in 1.0 mi North 4.6 mph - 0.00 in Snow Light Snow
9:16 AM 33.1 °F 30.0 °F 30.0 °F 89% 29.99 in 2.5 mi NE 3.5 mph - 0.01 in Snow Light Snow
9:34 AM 32.0 °F 27.5 °F 30.0 °F 92% 29.97 in 1.8 mi ESE 4.6 mph - 0.01 in Snow Light Snow
9:39 AM 33.1 °F 26.9 °F 30.0 °F 89% 29.97 in 3.0 mi East 6.9 mph - 0.02 in Snow Light Snow
9:53 AM 33.1 °F 28.7 °F 30.0 °F 89% 29.97 in 5.0 mi East 4.6 mph - 0.02 in Snow Light Snow
10:00 AM 33.1 °F 30.0 °F 30.9 °F 92% 29.97 in 3.0 mi East 3.5 mph - 0.00 in Snow Light Snow
10:12 AM 33.1 °F 27.7 °F 30.0 °F 89% 29.97 in 2.0 mi East 5.8 mph - 0.00 in Snow Light Snow
10:22 AM 33.1 °F 27.7 °F 30.0 °F 89% 29.96 in 1.8 mi East 5.8 mph - 0.01 in Snow Light Snow
10:43 AM 34.0 °F 28.8 °F 30.9 °F 89% 29.95 in 3.0 mi ENE 5.8 mph - 0.01 in Snow Light Snow
10:53 AM 34.0 °F 31.0 °F 30.9 °F 89% 29.94 in 5.0 mi ENE 3.5 mph - 0.01 in Snow Light Snow
11:53 AM 36.0 °F 33.3 °F 33.1 °F 89% 29.91 in 9.0 mi NE 3.5 mph - 0.00 in   Overcast
12:19 PM 37.9 °F 33.5 °F 35.1 °F 89% 29.90 in 10.0 mi North 5.8 mph - N/A   Overcast
12:53 PM 39.0 °F 35.7 °F 34.0 °F 82% 29.88 in 10.0 mi North 4.6 mph - N/A   Overcast
1:02 PM 39.9 °F 35.8 °F 35.1 °F 83% 29.88 in 10.0 mi North 5.8 mph - N/A   Overcast
1:09 PM 39.9 °F 35.8 °F 35.1 °F 83% 29.88 in 10.0 mi North 5.8 mph - N/A   Overcast
1:28 PM 39.9 °F 36.7 °F 34.0 °F 79% 29.86 in 10.0 mi North 4.6 mph - N/A   Overcast
1:53 PM 39.0 °F 33.4 °F 34.0 °F 82% 29.85 in 10.0 mi NNW 8.1 mph - 0.00 in Rain Light Rain
2:53 PM 37.9 °F 31.5 °F 34.0 °F 86% 29.81 in 10.0 mi NNW 9.2 mph - 0.01 in Rain Light Rain
3:53 PM 35.1 °F 27.4 °F 30.9 °F 85% 29.81 in 2.5 mi NNW 10.4 mph 17.3 mph 0.01 in Snow Light Snow
4:18 PM 35.1 °F 29.3 °F 32.0 °F 89% 29.80 in 4.0 mi North 6.9 mph - 0.00 in Snow Light Snow
4:29 PM 37.0 °F 29.3 °F 33.1 °F 86% 29.81 in 10.0 mi North 11.5 mph - 0.00 in   Overcast
4:36 PM 37.0 °F 28.5 °F 33.1 °F 86% 29.80 in 10.0 mi North 13.8 mph - 0.00 in   Overcast
4:53 PM 37.9 °F 30.0 °F 33.1 °F 83% 29.81 in 10.0 mi NNW 12.7 mph - 0.00 in   Overcast
5:11 PM 39.0 °F 32.3 °F 33.1 °F 79% 29.81 in 10.0 mi NNW 10.4 mph - N/A   Overcast
5:53 PM 39.0 °F 32.8 °F 32.0 °F 76% 29.81 in 10.0 mi North 9.2 mph - N/A   Overcast
6:53 PM 39.0 °F 32.8 °F 30.9 °F 73% 29.84 in 10.0 mi NNW 9.2 mph - N/A   Mostly Cloudy
7:53 PM 36.0 °F 30.3 °F 30.0 °F 79% 29.86 in 10.0 mi NNW 6.9 mph - N/A   Partly Cloudy
8:53 PM 35.1 °F 31.0 °F 30.0 °F 82% 29.88 in 10.0 mi NW 4.6 mph - N/A   Clear
9:53 PM 35.1 °F 30.1 °F 26.1 °F 70% 29.92 in 10.0 mi North 5.8 mph - N/A   Clear
10:53 PM 35.1 °F 27.4 °F 23.0 °F 61% 29.94 in 10.0 mi NNW 10.4 mph - N/A   Clear
11:53 PM 35.1 °F 27.9 °F 21.0 °F 57% 29.95 in 10.0 mi NNW 9.2 mph - N/A   Clear